EW3922 Weather Reports


time (UTC)temp
C
wind
direction
speed
KPH
gust
KPH
rain 1hr
cm
rain 24hr
cm
rain mn
cm
humidity
%
barometer
mb
20260510191522 28 297 0.0 1.6 0.00 0.00 0.00 46 1016.7
20260510190022 28 233 0.0 1.6 0.00 0.00 0.00 48 1016.9
20260510184511 28 176 0.0 1.6 0.00 0.00 0.00 56 1017.0
20260510183024 27 247 0.0 1.6 0.00 0.00 0.00 52 1016.8
20260510181513 27 247 0.0 1.6 0.00 0.00 0.00 55 1016.8
20260510180025 27 200 0.0 1.6 0.00 0.00 0.00 60 1016.9
20260510174515 27 227 0.0 1.6 0.00 0.00 0.00 59 1017.1
20260510173005 27 102 0.0 1.6 0.00 0.00 0.00 55 1017.3
20260510171519 27 112 0.0 1.6 0.00 0.00 0.00 50 1017.4
20260510170008 27 63 0.0 4.8 0.00 0.00 0.00 53 1017.5
20260510164521 26 71 0.0 3.2 0.00 0.00 0.00 59 1017.5
20260510163012 26 155 0.0 3.2 0.00 0.00 0.00 56 1017.6
20260510161522 25 317 0.0 1.6 0.00 0.00 0.00 60 1017.7
20260510160011 24 194 0.0 0.0 0.00 0.00 0.00 63 1017.5
20260510154518 23 194 0.0 1.6 0.00 0.00 0.00 70 1017.4
20260510153013 22 194 0.0 1.6 0.00 0.00 0.00 75 1017.3
20260510151514 20 194 0.0 0.0 0.00 0.00 0.00 82 1017.3
20260510150008 17 194 0.0 0.0 0.00 0.00 0.00 81 1017.1
20260510144533 17 194 0.0 0.0 0.00 0.00 0.00 76 1017.1
20260510143018 16 194 0.0 0.0 0.00 0.00 0.00 76 1017.0
20260510141520 16 194 0.0 0.0 0.00 0.00 0.00 77 1017.1
20260510140011 15 194 0.0 0.0 0.00 0.00 0.00 77 1017.0
20260510134522 15 194 0.0 0.0 0.00 0.00 0.00 77 1017.2
20260510133013 13 194 0.0 0.0 0.00 0.00 0.00 78 1017.3
20260510131523 13 194 0.0 0.0 0.00 0.00 0.00 78 1017.2
20260510130015 12 194 0.0 0.0 0.00 0.00 0.00 79 1017.1
20260510124523 12 194 0.0 0.0 0.00 0.00 0.00 80 1017.0
20260510123025 11 194 0.0 0.0 0.00 0.00 0.00 80 1016.9
20260510121525 11 194 0.0 0.0 0.00 0.00 0.00 81 1016.8
20260510120019 10 194 0.0 0.0 0.00 0.00 0.00 82 1016.6
20260510114524 10 194 0.0 0.0 0.00 0.00 0.00 83 1016.4
20260510113018 10 194 0.0 0.0 0.00 0.00 0.00 83 1016.0
20260510111522 10 194 0.0 0.0 0.00 0.00 0.00 84 1016.2
20260510110018 10 194 0.0 0.0 0.00 0.00 0.00 84 1015.7
20260510104521 10 194 0.0 0.0 0.00 0.00 0.00 84 1015.2
20260510103010 10 194 0.0 0.0 0.00 0.00 0.00 84 1015.1
20260510101518 10 194 0.0 0.0 0.00 0.00 0.00 84 1014.9
20260510100015 10 194 0.0 0.0 0.00 0.00 0.00 84 1014.7
20260510094539 10 194 0.0 0.0 0.00 0.00 0.00 84 1014.5
20260510093013 10 194 0.0 0.0 0.00 0.00 0.00 84 1014.5
20260510091525 10 194 0.0 0.0 0.00 0.00 0.00 84 1014.5
20260510090014 11 194 0.0 0.0 0.00 0.00 0.00 84 1014.3
20260510084521 11 194 0.0 0.0 0.00 0.00 0.00 84 1014.2
20260510083015 11 194 0.0 0.0 0.00 0.00 0.00 84 1014.0
20260510081525 11 194 0.0 0.0 0.00 0.00 0.00 84 1013.9
20260510080016 11 194 0.0 0.0 0.00 0.00 0.00 84 1013.9
20260510074522 11 194 0.0 0.0 0.00 0.00 0.00 84 1013.9
20260510073017 11 194 0.0 0.0 0.00 0.00 0.00 84 1013.8
20260510071524 11 194 0.0 0.0 0.00 0.00 0.00 84 1013.8
20260510070022 11 194 0.0 0.0 0.00 0.00 0.00 84 1013.6
20260510064505 12 194 0.0 0.0 0.00 0.00 0.00 84 1013.6
20260510063017 12 194 0.0 0.0 0.00 0.00 0.00 83 1013.6
20260510061506 12 194 0.0 0.0 0.00 0.00 0.00 83 1013.5
20260510060013 12 194 0.0 0.0 0.00 0.00 0.00 83 1013.4
20260510054522 12 194 0.0 0.0 0.00 0.00 0.00 83 1013.4
20260510053034 12 194 0.0 0.0 0.00 0.00 0.00 83 1013.5
20260510051523 12 194 0.0 0.0 0.00 0.00 0.00 83 1013.3
20260510050010 13 194 0.0 0.0 0.00 0.00 0.00 83 1013.2
20260510044521 13 194 0.0 0.0 0.00 0.00 0.00 83 1013.2
20260510043008 13 194 0.0 0.0 0.00 0.00 0.00 82 1013.2
20260510041526 13 194 0.0 0.0 0.00 0.00 0.00 82 1013.2
20260510040014 14 194 0.0 0.0 0.00 0.00 0.00 81 1013.3
20260510034515 14 194 0.0 0.0 0.00 0.00 0.00 81 1013.3
20260510033007 15 194 0.0 0.0 0.00 0.00 0.00 80 1013.2
20260510031518 15 194 0.0 0.0 0.00 0.00 0.00 80 1013.3
20260510030027 15 194 0.0 0.0 0.00 0.00 0.00 78 1013.3
20260510024516 16 194 0.0 0.0 0.00 0.00 0.00 78 1013.1
20260510023007 16 194 0.0 0.0 0.00 0.00 0.00 76 1012.9
20260510021531 17 194 0.0 0.0 0.00 0.00 0.00 75 1012.7
20260510020024 17 194 0.0 0.0 0.00 0.00 0.00 74 1012.6
20260510014514 18 194 0.0 0.0 0.00 0.00 0.00 71 1012.3
20260510013026 18 194 0.0 0.0 0.00 0.00 0.00 69 1012.1
20260510011511 20 194 0.0 0.0 0.00 0.00 0.00 68 1011.9
20260510010019 20 194 0.0 0.0 0.00 0.00 0.00 68 1011.8
20260510004514 21 194 0.0 0.0 0.00 0.00 0.00 64 1011.6
20260510003020 22 194 0.0 0.0 0.00 0.00 0.00 64 1011.4
20260510001517 22 194 0.0 0.0 0.00 0.00 0.00 61 1011.3
20260510000028 23 194 0.0 0.0 0.00 0.00 0.00 58 1011.2
20260509234510 24 194 0.0 0.0 0.00 0.00 0.00 57 1011.1
20260509233020 25 194 0.0 0.0 0.00 0.00 0.00 53 1010.9
20260509231512 26 194 0.0 0.0 0.00 0.00 0.00 50 1011.0
20260509230021 26 194 0.0 0.0 0.00 0.00 0.00 47 1011.1
20260509224510 27 194 0.0 0.0 0.00 0.00 0.00 42 1011.0
20260509223022 27 194 0.0 0.0 0.00 0.00 0.00 41 1011.0
20260509221514 28 194 0.0 0.0 0.00 0.00 0.00 39 1011.0
20260509220024 28 194 0.0 0.0 0.00 0.00 0.00 37 1011.0
20260509214514 28 194 0.0 1.6 0.00 0.00 0.00 32 1010.9
20260509213029 28 194 0.0 0.0 0.00 0.00 0.00 40 1010.7
20260509211514 28 194 0.0 1.6 0.00 0.00 0.00 42 1010.6
20260509210005 28 194 0.0 1.6 0.00 0.00 0.00 42 1010.7
20260509204516 28 144 0.0 4.8 0.00 0.00 0.00 39 1010.7
20260509203008 28 19 0.0 1.6 0.00 0.00 0.00 41 1010.7
20260509201515 27 350 0.0 1.6 0.00 0.00 0.00 42 1010.9
20260509200007 27 32 0.0 4.8 0.00 0.00 0.00 46 1011.2
20260509194517 28 227 0.0 1.6 0.00 0.00 0.00 44 1011.2
20260509193024 28 265 0.0 1.6 0.00 0.00 0.00 43 1011.3